User: anonymous   Login
Location: *
(33.8649°S, 62.1526°E)
Time: 00:04:24
(UTC+00:00)
Language:

Centaur D AC-28 - Orbit

View from above orbital plane
View from above orbital plane
View from above satellite
View from above satellite

Ground track
Ground track

The orbit data is extracted from the following two-line orbital elements,

1  5816U 72003B   21102.64754647 -.00000142  00000-0  83630-3 0  9992
2  5816  27.8604 211.8220 7161216 340.1214   5.0554  2.20882526396589
Epoch (UTC): 12 April 2021 15:32:28
Eccentricity: 0.7161216
inclination: 27.8604°
perigee height: 692 km
apogee height: 36362 km
right ascension of ascending node: 211.8220°
argument of perigee: 340.1214°
revolutions per day: 2.20882526
mean anomaly at epoch: 5.0554°
orbit number at epoch: 39658

The dashed part of the orbit path shows where the satellite is in the earth's shadow,  

DLR